Overview Statistics Trail Chart Weather Telemetry Raw packets
 

This is the latest recevied weather packets stored in our database for station/object PA5MB-15. If no packets are shown the sender has not sent any weather packets the latest 10 day(s).

<< 16 17 18 19 20 21 22 >>
Time Temp. Humidity Pressure Rain* Wind** Luminosity Snow
1777914046 17.78° C 83% 1013.4 hPa 0 mm - 13 W/m² -
1777913730 18.33° C 82% 1013.5 hPa 0 mm - 13 W/m² -
1777913430 18.33° C 80% 1013.5 hPa 0 mm - 13 W/m² -
1777913130 18.33° C 79% 1013.5 hPa 0 mm - 12 W/m² -
1777912830 18.33° C 79% 1013.5 hPa 0 mm - 12 W/m² -
1777912530 18.33° C 79% 1013.5 hPa 0 mm - 13 W/m² -
1777912222 18.33° C 79% 1013.5 hPa 0 mm - 14 W/m² -
1777911926 18.33° C 78% 1013.5 hPa 0 mm - 14 W/m² -
1777911630 18.89° C 78% 1013.5 hPa 0 mm - 15 W/m² -
1777911330 18.89° C 77% 1013.5 hPa 0 mm - 15 W/m² -
1777911028 18.89° C 77% 1013.5 hPa 0 mm - 17 W/m² -
1777910742 18.89° C 76% 1013.5 hPa 0 mm - 18 W/m² -
1777910430 18.89° C 74% 1013.6 hPa 0 mm - 19 W/m² -
1777910130 19.44° C 70% 1013.6 hPa 0 mm - 20 W/m² -
1777909830 19.44° C 66% 1013.6 hPa 0 mm - 22 W/m² -
1777909530 19.44° C 69% 1013.6 hPa 0 mm - 23 W/m² -
1777909230 18.89° C 70% 1013.7 hPa 0 mm - 25 W/m² -
1777908931 18.89° C 72% 1013.7 hPa 0 mm - 28 W/m² -
1777908643 18.89° C 72% 1013.7 hPa 0 mm - 29 W/m² -
1777908343 18.89° C 71% 1013.6 hPa 0 mm - 30 W/m² -
1777908030 18.89° C 75% 1013.6 hPa 0 mm - 32 W/m² -
1777907724 18.89° C 77% 1013.7 hPa 0 mm - 35 W/m² -
1777907422 18.89° C 76% 1013.6 hPa 0 mm - 32 W/m² -
1777907130 18.89° C 78% 1013.6 hPa 0 mm - 30 W/m² -
1777906830 18.33° C 80% 1013.7 hPa 0 mm - 27 W/m² -

* Rain latest hour (hover to see other rain measurements)
** Current wind speed in m/s (hover to see current wind gust speed)